Location: Bishop's University Astronomical Observatory
(45.3661°N, 71.8475°W)
Time: 07:43:42
(UTC-04:00)

CZ-4C R/B - Visible Passes

Search period start: 19 April 2018 00:00
Search period end: 29 April 2018 00:00
Orbit: 693 x 1309 km, 63.4° (Epoch: 18 April)

Date Brightness Start Highest point End Pass type
(mag) Time Alt. Az. Time Alt. Az. Time Alt. Az.
19 Apr 4.1 01:40:15 20° WNW 01:42:34 25° NNW 01:47:44 10° NNE visible
19 Apr 4.9 03:29:55 10° NW 03:33:34 16° N 03:37:31 10° NE visible
19 Apr 4.9 05:19:22 10° NNW 05:24:42 24° NNE 05:30:35 10° ENE visible
19 Apr 3.9 22:41:44 19° ENE 22:41:44 19° ENE 22:43:42 10° NE visible
20 Apr 3.0 00:26:51 46° NW 00:26:51 46° NW 00:32:46 10° NNE visible
20 Apr 4.7 02:13:05 10° WNW 02:17:04 18° NNW 02:21:27 10° NNE visible
20 Apr 5.0 04:04:12 10° NNW 04:08:20 17° NNE 04:12:50 10° NE visible
20 Apr 2.8 23:13:19 48° NE 23:13:19 48° NE 23:17:42 10° NE visible
21 Apr 4.0 00:58:25 20° WNW 01:00:54 28° NNW 01:06:16 10° NNE visible
21 Apr 4.9 02:48:08 10° NW 02:51:47 16° N 02:55:45 10° NNE visible
21 Apr 5.0 04:37:54 10° NNW 04:42:59 22° NNE 04:48:34 10° ENE visible
21 Apr 3.7 21:59:36 20° ENE 21:59:36 20° ENE 22:01:59 10° ENE visible
21 Apr 2.7 23:44:41 52° WNW 23:45:17 55° NW 23:51:19 10° NNE visible
22 Apr 4.7 01:31:12 10° WNW 01:35:20 19° NNW 01:39:55 10° NNE visible
22 Apr 5.0 03:22:37 10° NNW 03:26:34 16° N 03:30:51 10° NE visible
22 Apr 4.7 05:11:21 10° NNW 05:17:23 32° NE 05:24:06 10° E visible
22 Apr 2.1 22:30:39 60° ESE 22:30:39 60° ESE 22:36:10 10° NE visible
23 Apr 3.9 00:15:43 16° W 00:19:17 31° NNW 00:24:50 10° NNE visible
23 Apr 5.0 02:06:20 10° NW 02:10:00 16° N 02:14:01 10° NNE visible
23 Apr 5.1 03:56:27 10° NNW 04:01:16 20° NNE 04:06:32 10° ENE visible
23 Apr 3.2 21:16:07 21° ESE 21:16:07 21° ESE 21:20:12 10° ENE visible
23 Apr 2.5 23:01:07 30° WSW 23:03:46 65° NW 23:09:51 10° NE visible
24 Apr 4.6 00:49:20 10° WNW 00:53:37 21° NNW 00:58:24 10° NNE visible
24 Apr 5.1 02:40:59 10° NNW 02:44:47 16° N 02:48:55 10° NE visible
24 Apr 4.8 04:29:55 10° NNW 04:35:43 29° NNE 04:42:11 10° E visible
24 Apr 2.2 21:44:57 16° S 21:48:56 50° ESE 21:54:36 10° NE visible
24 Apr 3.7 23:32:41 10° WSW 23:37:39 35° NW 23:43:23 10° NNE visible
25 Apr 5.0 01:24:29 10° NW 01:28:15 17° N 01:32:21 10° NNE visible
25 Apr 5.1 03:14:57 10° NNW 03:19:31 19° NNE 03:24:30 10° ENE visible
25 Apr 4.2 05:03:17 10° NNW 05:09:54 44° NE 05:17:19 10° ESE visible
25 Apr 3.4 20:31:27 10° SSE 20:34:45 17° ESE 20:38:17 10° ENE visible
25 Apr 2.2 22:17:04 10° SW 22:22:17 77° NW 22:28:23 10° NE visible
26 Apr 4.5 00:07:29 10° WNW 00:11:55 23° NNW 00:16:55 10° NNE visible
26 Apr 5.2 01:59:18 10° NNW 02:03:01 16° N 02:07:01 10° NE visible
26 Apr 5.0 03:48:30 10° NNW 03:54:03 26° NNE 04:00:12 10° E visible
26 Apr 2.5 21:02:49 10° S 21:07:35 40° ESE 21:13:01 10° NE visible
26 Apr 3.5 22:51:01 10° WSW 22:56:04 41° NW 23:01:56 10° NNE visible
27 Apr 5.0 00:42:37 10° NW 00:46:29 17° NNW 00:50:43 10° NNE visible
27 Apr 5.2 02:33:26 10° NNW 02:37:46 18° NNE 02:42:29 10° NE visible
27 Apr 4.4 04:21:53 10° NNW 04:28:18 39° NE 04:35:31 10° ESE visible
27 Apr 2.1 21:35:38 10° SW 21:40:50 88° SE 21:46:54 10° NE visible
27 Apr 4.4 23:25:38 10° W 23:30:14 25° NNW 23:35:26 10° NNE visible
28 Apr 5.3 01:17:34 10° NW 01:21:14 16° N 01:25:11 10° NE visible
28 Apr 5.0 03:07:04 10° NNW 03:12:22 24° NNE 03:18:13 10° ENE visible
28 Apr 3.5 04:55:15 10° NW 05:02:15 64° NE 05:10:08 10° SE visible
28 Apr 2.8 20:21:44 10° S 20:26:16 32° ESE 20:31:22 10° NE visible
28 Apr 3.2 22:09:22 10° WSW 22:14:30 47° NW 22:20:28 10° NNE visible
